sat.trackr.live / text

‹ back to catalog

STARLINK-3331

NORAD 50834 · 2022-001AH

PAYLOAD ACTIVE UNKNOWN

§ Identity

Operator
Country
US
Launch date
2022-01-06
Launch site
AFETR
Launch vehicle
Mass (kg)
RCS (m²)

Purposes: comms

External: N2YO · Heavens-Above · Gunter

§ Orbital elements

Epoch: 2026-05-25T03:25:42.322080Z

Period
95.44 min
Inclination
53.2143°
Eccentricity
0.0001109
Mean motion
15.08834447 rev/d
Perigee alt
539.0 km
Apogee alt
540.5 km
Semi-major
6,917.9 km
B*
-3.8382e-5
RAAN
195.9124°
Arg perigee
91.0213°
Mean anomaly
269.0906°
Rev number
24,180

§ Raw data

STARLINK-33311 50834U 22001AH  26145.14285095 -.00000898  00000+0 -38382-4 0  99912 50834  53.2143 195.9124 0001109  91.0213 269.0906 15.08834447241809

JSON: /api/v1/satellites/50834 · /tle

For live sub-satellite position, see the globe view (requires WebGL).

§ Visibility from observer

Set your observer location to see the next 7 days of passes ≥ 10°. The values pass through the URL so the page stays shareable.

No JS? Fill the form by hand. The geolocation button needs JavaScript.